Home   Weather   Belleville   Past weeks

Flag for Canada Past Weather in Belleville, Ontario, Canada — Yesterday and Last 2 Weeks

43 °F

Passing clouds.

Feels Like: 34 °F
Forecast: N/A
Wind: 22 mph from Northwest

Location: Trenton

Current Time: Oct 22, 2016 at 7:45:08 PM

Latest Report: Oct 22, 2016 at 7:00 PM

Visibility: 15 mi

Pressure: 29.67 "Hg

Humidity: 61%

Dew Point: 30 °F

Location of BellevilleLocation

Past Weather in Belleville — Graph


Belleville Temperature Yesterday

Maximum temperature yesterday: 52 °F (at 12:00 AM)
Minimum temperature yesterday: 43 °F (at 10:00 PM)
Average temperature yesterday: 48 °F

High & Low Weather Summary for the Past Weeks

High72 °F (Oct 7, 6:00 PM)100% (Oct 12, 2:00 AM)30.47 "Hg (Oct 12, 2:00 AM)
Low28 °F (Oct 14, 6:00 AM)34% (Oct 11, 3:00 PM)29.57 "Hg (Oct 18, 2:00 PM)
Average53 °F81%30.06 "Hg
* Reported Oct 7 6:00 PM — Oct 22 6:00 PM, Belleville, Weather by CustomWeather, © 2016

Note: Actual official high and low records may vary slightly from our data, if they occured in-between our weather recording intervals... More about our weather records


Belleville Weather History for the Previous 24 Hours

Scroll right to see more
Time TempWeatherWind HumidityBarometerVisibility
6:00 PM
Sat, Oct 22
46 °FScattered clouds.18 mph57%29.65 "Hg15 mi
5:00 PM48 °FBroken clouds.16 mph54%29.63 "Hg15 mi
4:00 PM48 °FBroken clouds.18 mph58%29.64 "Hg15 mi
3:00 PM50 °FBroken clouds.17 mph62%29.64 "Hg15 mi
2:00 PM46 °FBroken clouds.20 mph66%29.63 "Hg15 mi
1:00 PM46 °FPartly sunny.17 mph62%29.64 "Hg15 mi
12:00 PM45 °FBroken clouds.21 mph66%29.65 "Hg15 mi
11:00 AM43 °FBroken clouds.14 mph76%29.66 "Hg15 mi
10:00 AM41 °FPartly sunny.14 mph76%29.66 "Hg15 mi
9:00 AM41 °FPartly sunny.10 mph76%29.68 "Hg15 mi
8:00 AM41 °FPartly sunny.12 mph76%29.70 "Hg15 mi
7:00 AM41 °FOvercast.9 mph81%29.71 "Hg15 mi
6:00 AM41 °FOvercast.10 mph76%29.72 "Hg15 mi
5:00 AM41 °FOvercast.10 mph76%29.72 "Hg15 mi
4:00 AM41 °FOvercast.12 mph76%29.75 "Hg15 mi
3:00 AM41 °FOvercast.14 mph81%29.75 "Hg15 mi
2:00 AM41 °FLight rain. Overcast.10 mph81%29.76 "Hg15 mi
1:00 AM41 °FLight rain. Overcast.13 mph87%29.77 "Hg15 mi
12:00 AM41 °FLight rain. Overcast.10 mph87%29.80 "Hg15 mi
11:00 PM
Fri, Oct 21
43 °FLight rain. Overcast.12 mph71%29.82 "Hg15 mi
10:00 PM43 °FLight rain. Mostly cloudy.12 mph87%29.83 "Hg15 mi
9:00 PM45 °FLight rain. Mostly cloudy.12 mph87%29.83 "Hg15 mi
8:00 PM45 °FLight rain. Mostly cloudy.14 mph87%29.83 "Hg10 mi
7:00 PM45 °FLight rain. Mostly cloudy.14 mph93%29.83 "Hg10 mi
Weather by CustomWeather, © 2016

See weather overviewHow to use our weather pages